SL-16 DEB

Satellite information

Favourite Embed

Satellite Type and Status

DEBRISIN ORBIT

Key statistics

Satellite SL-16 DEB at a glance.

Uptime

11822

Days in orbit

Revolutions

≈ 14.1

Per day

Orbit

LEO

Low Earth Orbit

Inclination

71.1

Latest

Satellite identification and parameters

Extended collection of information and parameters for SL-16 DEB.

Object identification

Identified? True

Debris? True

Object name: SL-16 DEB

International designator: 1992-093CZ

Object number (NORAD): 22408

Object ID (CCSDS): 22408

Country: COMMONWEALTH OF INDEPENDENT STATES (CIS)

Current information (Y/N): Y

RCS size: SMALL

Orbital parameters

Period: 102.003 minutes

Inclination: 71.0923 deg

SMA: 7231.622 km

Apoapsis: 940.534 km

Periapsis: 766.44 km

RAAN: 268.4685 deg

Eccentricy: 0.012037

Argument of periapsis: 310.2632 deg

Mean anomaly: 107.2327 deg

Mean motion: 14.1172211 rev/day

Mean motion (dot): 0.00002024 rev/day2

B* drag term: 0.0010618 1/REarth

Two-line elements (TLE)

Creation date: May 7, 2025, 3:14 a.m.

Reference frame: TEME

Reference center: EARTH

Epoch: May 6, 2025, 10:36 a.m. UTC

TLE line 0: 0 SL-16 DEB

TLE line 1: 1 22408U 92093CZ 25126.44196622 .00002024 00000-0 10618-2 0 9995

TLE line 2: 2 22408 71.0923 268.4685 0120370 310.2632 107.2327 14.11722110650653

Live tracking on map

Real-time ground track for satellite SL-16 DEB.

In-orbit conjunctions

A list of the most updated potential collisions computed for object SL-16 DEB.

Target Orbit TCA Probability of collision Miss distance Type
CBERS 2 SSO 2024-10-15 12:29:12 0.0001407078 398.0 (m) PAYLOAD
THORAD AGENA D DEB SSO 2024-07-22 14:54:42 0.0001059943 505.0 (m) DEBRIS
FENGYUN 1C DEB SSO 2024-07-11 20:13:01 0.0001062158 113.0 (m) DEBRIS

Associated space launch

Second generation ELING satellite

SL-16 DEB was lifted into orbit during the mission ‘Zenit-2 | Tselina-2 12’, on board a Zenit-2 space rocket.

The launch took place on Dec. 25, 1992, 5:56 a.m. from 45/1.

For more information about the launch, click the button.

Launch to space Zenit-2 | Tselina-2 12
Zenit-2 | Tselina-2 12

Agency: N/A

Status: Launch Successful

Launch date: Dec. 25, 1992, 5:56 a.m. UTC

Rocket: Zenit-2

Launch pad: 45/1

Location: Baikonur Cosmodrome, Republic of Kazakhstan

...

Latest news about this satellite

There are no fresh news available about this satellite. Check back as we update our databases every day.


Newsletter sign-up

Weekly statistics, charts and insights to help you stay on top of the space industry.